Jilin-1 GaoFen 06A 22 xing

operational
NORAD ID: 57033 Int'l Des: NNA 2023-085 Owner: CGSTL Country: CN Constellation: jilin-1
LEOCIRCULARRETROGRADE

About Jilin-1 GaoFen 06A 22 xing

Description loading...

Live Position

Loading 3D Globe...

Upcoming Passes

Altitude History

Altitude vs Time

uPlot chart will show altitude changes over time

Two-Line Element Set

1 57033U 23085AF 25298.54344294 .00075276 00000-0 11560-2 0 9999
2 57033 97.4852 55.1459 0004002 148.5467 211.6026 15.54011585131609
Epoch: Oct 25, 2025 • Age: 8 hours

Current Status

Altitude 404.7 km
Velocity 7.67 km/s
Sub-Earth Point 15.91°N, 118.96°W
Launch Date Jun 15, 2023
Age 2.3 years
Type other

Technical Details

Classification Payload
Mass 42.00 kg
Dry Mass 42.00 kg
Total Mass 42.00 kg
Length 1.50 m
Diameter 1.00 m
Span 1.50 m
Shape Box
Manufacturer CGSTL
Bus Type JL-1
Phase Status In Orbit
Owner/State CGSTL/CN

Large Constellations

Loading constellations...